STARLINK-32440, 61714

Orbit data source: Space-Track

STARLINK-32440, 61714 is a payload satellite owned by SpaceX/Seattle (US) in LEO that was launched on Wed, 30 Oct 2024 UTC via an FALCON 9 launch vehicle from the Air Force Eastern Test Range (AFETR). Payload-class satellites include a variety of spacecraft equipped with specific instruments for various scientific and technological missions. These include communications satellites like Starlink; space stations such as the ISS; scientific satellites like the Hubble; Earth observation satellites from companies like Planet Labs, Umbra, and HawkEye 360; GPS; miniature CubeSats for education and research; and military/defense satellites.

Loading next visibility...
Identifier
61714, 2024-196H
Orbit
LEO
Country
Flag of USUS
Related business
Manufacturer
SpaceX/Seattle
Mission
Operational Commercial Communications
Bus & Motor
STARLINK V2M, Unknown motor
Mass
730 kg wet, ~700 kg dry
Launch date (UTC)
2024-10-30 (1 year ago)
Launch vehicle
FALCON 9
Launch site
Air Force Eastern Test Range (AFETR)
Object type
Payload
Rocket body
Debris
Shape & HBR
Box + 2 Pan, 17.7 m
Radar Cross Section
33.884 m², Large (>1 m²)

Expand to show TLE details & history
Last TLE update: 1 day ago

TLE from 1 day ago
0 STARLINK-32440
1 61714U 24196H   26033.66415878  .00002150  00000-0  84713-4 0  9995
2 61714  53.1593 264.0574 0001050 113.2690 246.8422 15.30189857 71792
Epoch: 2026-02-02T15:56Z
TLE epoch observation values (Epoch: 2026-02-02T15:56:23.318Z)
Latitude
0.00002°
Longitude
-107.89594°
Altitude
476.428 km
Speed
7.629 km/s
True Right ascension
17h 36m 13s
True Declination
0° 00' 00"
Sunlit
Object was in daylight at epoch
Visualization orbit readout
Latitude
Unknown
Longitude
Unknown
Altitude
Unknown
Speed
Unknown
Apparent Right ascension
Unknown
Apparent Declination
Unknown
Sunlit
N/A
Visualization observer readout
Local Sidereal Time
05:39:18
Azimuth
Unknown
Elevation
Unknown
Doppler factor
Unknown
Orbital elements
Apogee altitude
476.222 km
Perigee altitude
474.782 km
Semi-major axis
6,853.639 km
Eccentricity
0.00011
Inclination
53.1593°
RAAN
264.0574°
Arg. of periapsis
113.269°
True anomaly
246.83114°
Mean anomaly
246.8422°
Eccentric anomaly
246.83667°
Mean motion
3.82526 °/min
Orbital period
94.11 mins
BSTAR
0.000084713
Loading maneuver chart data...
Computing Atmospheric mass density...
Loading historical data...
Loading historical data...
Loading historical data...
Loading historical data...
Loading historical data...
Loading historical data...
Loading historical data...

Documentation

Showing up to 5 results
|